Theta_e
298 302 301 301 301 302 297 297 294 296 302 308 310 315 317 319 320 322 322 323 324 326 327 329 331 332 335 337 339 339 338 338 337 339 340 341 341 343 344 344 344 343 344 344
294 301 299 298 305 304 307 306 306 306 305 312 313 319 319 319 319 319 320 323 325 328 327 328 330 331 333 335 338 339 338 338 339 339 339 341 342 343 344 345 345 342 343 344
288 295 296 293 300 305 305 308 307 304 308 311 312 314 317 317 318 320 322 323 323 323 327 330 330 333 333 336 338 339 339 339 339 341 340 341 344 344 344 345 344 343 345 343
289 291 286 296 307 309 305 306 308 309 310 312 313 315 319 318 317 319 322 324 325 326 327 328 332 338 334 337 339 339 339 340 341 342 343 343 343 344 346 345 342 344 344 345
288 287 292 301 304 303 300 302 308 306 308 311 314 315 313 317 317 321 321 322 323 325 329 327 329 333 339 336 339 340 340 341 342 344 343 344 343 343 343 339 341 344 344 344
291 289 288 297 306 310 307 297 308 310 309 309 311 303 308 315 316 319 324 324 324 326 328 329 328 330 333 336 338 338 341 342 343 344 344 343 344 340 338 340 338 340 339 339
293 292 298 306 309 310 295 295 308 312 311 309 305 307 312 316 316 319 323 325 328 329 325 324 325 328 325 328 331 338 343 344 345 344 344 344 341 341 341 340 341 339 338 338
291 288 288 308 307 299 301 305 308 310 311 310 311 313 314 316 317 318 320 323 326 326 326 326 326 324 325 326 330 334 337 342 343 344 345 343 341 339 340 339 336 336 335 337
294 294 302 306 306 308 308 306 307 309 310 311 311 313 315 313 314 316 319 322 325 325 325 325 322 322 321 325 330 329 330 333 341 343 344 342 339 336 335 335 334 332 332 336
297 298 305 306 308 309 308 308 310 311 311 311 309 313 315 314 312 314 318 320 323 325 324 324 321 323 324 325 329 328 327 332 342 341 339 338 337 336 333 330 329 329 328 330
297 300 304 306 306 308 310 311 312 312 312 311 311 311 313 311 312 314 316 318 321 323 324 325 323 322 324 325 325 329 329 333 341 339 337 330 322 323 327 318 322 327 326 329
295 301 302 303 308 310 309 310 312 312 312 314 313 312 314 313 314 314 314 317 319 320 322 324 323 323 324 329 332 330 329 335 338 333 330 327 321 313 304 305 302 302 303 318
302 304 306 308 310 311 310 311 313 313 313 313 315 315 315 315 315 315 315 317 317 318 320 322 323 322 325 328 332 334 334 334 331 327 326 323 321 321 315 310 303 300 300 302
309 306 304 307 307 312 312 313 314 315 316 316 317 318 317 314 314 313 314 316 315 317 320 322 322 322 325 326 332 329 332 318 332 330 327 323 322 320 318 316 314 313 303 303
307 308 308 310 311 311 314 315 315 315 316 316 318 317 317 314 313 314 316 315 316 318 322 325 324 326 330 328 327 326 327 331 333 332 328 323 323 319 317 315 314 312 312 305
308 309 310 310 312 313 315 316 315 316 317 317 316 316 317 317 316 317 316 315 314 316 323 327 324 328 328 328 328 326 326 325 329 330 326 324 323 320 316 314 313 313 313 313
305 307 310 311 313 314 315 317 318 317 318 318 317 318 317 318 319 317 316 318 319 320 322 323 326 327 327 327 325 326 329 329 325 326 327 327 325 323 321 319 317 316 316 315
310 311 313 314 314 315 316 317 318 318 317 320 322 320 318 318 317 317 316 318 318 319 322 325 326 326 327 328 328 325 325 325 326 325 326 326 326 325 323 323 322 321 318 316
315 314 316 317 317 318 318 319 320 320 320 321 320 318 318 318 319 319 319 316 317 320 322 323 326 324 322 324 325 325 327 325 326 326 324 321 321 325 324 323 323 323 322 320
314 316 316 316 318 318 318 320 321 322 324 324 320 317 317 318 318 317 314 313 316 320 322 322 323 322 321 325 326 325 326 327 326 325 324 323 322 322 322 316 323 324 324 323
312 314 315 315 316 317 318 319 318 319 321 323 322 321 321 321 320 319 317 316 319 323 322 323 322 322 322 322 325 324 326 326 326 324 324 323 323 323 322 322 322 323 323 323
312 313 314 314 315 315 316 317 318 318 318 318 320 321 322 321 322 322 324 322 325 316 323 327 327 323 322 325 324 325 325 326 325 325 324 324 323 323 325 324 323 323 323 323
315 314 314 313 312 313 314 313 312 313 315 316 317 318 319 320 320 319 319 323 326 319 323 324 320 320 321 327 327 326 326 327 326 326 326 328 327 325 325 324 324 325 322 321
313 312 312 314 314 310 309 311 310 310 314 315 316 318 318 316 317 321 323 319 314 316 319 319 318 317 319 326 328 329 327 327 325 324 326 312 326 327 326 327 325 325 324 318
314 312 311 311 308 307 307 308 308 308 308 312 314 316 318 320 319 322 324 323 316 320 323 316 317 318 326 327 326 326 325 324 325 326 326 324 324 324 325 326 326 323 323 322
314 313 311 312 310 308 307 307 305 306 306 307 311 314 316 318 319 322 323 319 321 317 322 322 321 322 325 327 327 326 325 324 323 324 322 322 319 318 318 320 324 323 322 322
313 308 311 310 312 312 311 308 307 307 306 306 306 308 310 314 316 316 315 319 319 319 320 321 323 321 325 325 325 324 323 321 313 318 317 315 314 313 313 312 312 313 313 314
Wind_Speed
3 3 2 3 4 4 3 1 2 3 3 7 13 14 12 12 12 11 10 9 5 6 12 14 14 13 13 10 13 12 11 11 14 12 11 10 9 8 7 7 8 7 7 6
3 3 1 1 7 7 7 5 3 7 2 10 15 8 11 16 17 12 9 12 9 6 4 7 12 14 13 14 14 14 14 15 10 10 12 12 12 9 9 9 8 6 8 9
4 5 5 5 6 7 5 5 2 4 3 9 12 14 11 14 14 13 12 10 8 7 7 6 6 12 13 16 14 15 15 13 11 12 12 12 12 9 10 9 7 8 9 8
3 4 1 2 4 12 10 3 2 2 5 8 9 10 9 7 8 7 8 12 10 6 4 6 8 4 5 7 12 13 13 14 14 13 14 11 9 10 10 6 7 3 5 8
3 2 3 3 3 1 3 1 2 5 8 7 9 9 7 4 7 5 3 4 7 10 6 4 3 3 4 7 10 12 14 13 12 14 13 10 11 11 7 6 6 7 9 12
2 0 4 2 7 6 3 3 4 3 6 7 9 5 6 13 14 14 5 6 7 6 6 5 6 5 3 4 7 11 12 13 11 9 10 12 11 9 5 5 6 7 9 10
3 2 0 2 11 7 1 3 6 4 6 5 4 5 9 17 17 11 11 10 5 7 5 5 5 6 5 2 2 5 6 8 8 10 12 10 10 6 7 6 6 6 6 5
1 2 4 5 4 4 4 3 5 4 5 7 9 12 10 13 17 17 14 13 7 4 4 2 6 4 7 6 6 6 6 5 5 11 11 7 9 5 6 7 6 6 6 5
6 6 4 2 2 3 2 5 6 6 9 9 13 13 14 11 14 15 15 12 11 7 6 4 5 5 7 6 5 5 5 7 6 7 7 11 8 7 4 5 6 6 5 6
3 3 5 6 4 3 4 7 11 11 13 13 15 14 16 11 13 12 13 11 9 8 8 8 6 7 7 5 6 7 7 8 9 9 7 10 5 6 5 4 4 4 4 4
5 6 7 4 1 4 11 13 14 13 13 15 16 16 15 10 13 12 10 8 8 7 8 13 5 7 6 7 8 9 9 6 7 9 8 8 6 4 3 3 2 5 5 5
5 3 4 8 9 11 13 15 16 15 16 16 14 16 16 14 14 12 11 8 8 8 8 12 8 8 5 8 9 11 10 6 6 8 8 8 8 5 11 7 4 5 3 4
5 2 6 15 16 16 15 16 18 16 18 19 18 15 15 15 15 13 13 9 9 8 10 9 9 10 8 7 5 7 10 6 6 8 8 8 6 8 6 0 5 4 4 3
7 4 8 7 10 17 18 20 19 19 18 16 17 16 13 12 12 12 13 11 8 7 10 11 10 12 9 8 5 2 2 1 7 8 9 8 7 6 5 6 5 2 2 2
9 7 11 16 16 17 17 16 18 19 18 15 13 14 12 13 13 13 12 7 8 8 12 10 8 10 10 12 12 12 8 7 5 6 6 7 7 7 7 5 5 4 3 2
11 11 12 13 15 16 15 18 16 17 17 14 13 13 13 14 14 12 10 7 6 7 10 10 8 7 7 6 9 4 6 3 7 5 6 7 6 7 5 4 5 4 5 4
7 10 12 15 15 17 17 16 14 15 15 14 15 13 11 12 12 11 11 9 9 11 10 9 12 6 5 5 4 1 4 6 6 4 7 8 8 7 6 6 6 5 6 7
8 10 12 13 13 15 15 15 13 14 14 13 13 12 10 9 11 12 8 6 7 7 8 8 6 6 7 7 6 4 4 5 5 6 7 7 7 6 6 7 7 6 4 5
10 10 11 12 13 13 13 13 13 14 14 12 12 10 9 9 9 9 6 6 5 5 7 5 9 10 8 11 11 7 6 4 4 4 4 6 5 6 6 7 6 6 5 6
11 11 12 13 13 11 12 12 13 12 11 12 8 7 8 8 7 5 5 6 5 5 5 6 9 9 7 10 13 7 8 7 6 5 5 5 6 6 6 7 7 7 7 6
10 11 12 11 11 11 12 11 11 12 13 11 11 11 11 10 5 4 6 5 7 8 7 5 5 3 5 5 4 4 4 4 4 5 5 5 4 4 4 5 6 6 7 6
8 9 10 10 9 10 11 11 11 11 11 12 13 12 11 12 12 8 5 6 5 12 3 3 3 6 5 9 4 3 3 3 4 4 4 4 4 4 5 5 5 6 6 6
7 7 7 8 8 8 9 10 11 11 12 11 11 12 11 8 7 7 8 11 5 7 5 4 4 8 8 4 3 3 4 5 5 4 4 3 3 3 4 5 5 5 5 5
6 6 6 6 5 7 10 11 10 9 9 10 11 11 9 8 7 7 6 7 9 8 6 5 5 5 4 2 3 4 4 4 4 3 3 3 3 4 4 5 5 5 5 5
10 8 4 4 4 3 6 8 8 11 12 12 11 10 11 8 6 8 8 8 11 7 6 10 8 7 4 5 5 5 4 2 3 4 4 3 3 2 4 5 6 4 4 5
12 7 4 3 3 1 2 3 4 4 6 8 9 10 9 8 9 9 8 9 9 8 6 5 5 5 4 6 5 4 4 4 5 3 5 6 6 4 4 5 2 0 1 2
9 6 1 1 1 2 2 3 4 5 5 5 5 6 6 8 9 9 10 9 9 9 9 8 7 7 5 5 6 6 6 6 6 5 7 7 8 7 7 7 6 6 8 7
Wind_Direction
196 237 348 295 334 11 86 342 183 329 86 343 326 325 325 326 347 22 7 348 302 206 183 187 187 185 184 184 179 176 178 186 198 199 192 196 200 198 199 213 216 209 213 216
285 193 343 96 9 100 44 352 43 38 344 353 321 329 359 2 6 14 23 2 9 31 221 199 192 189 183 187 189 178 186 201 202 192 203 202 199 191 192 210 219 198 205 208
286 354 333 41 342 76 85 20 34 51 282 314 329 331 355 8 1 2 354 354 6 8 348 336 224 191 198 192 179 187 195 203 196 189 203 213 205 191 203 208 206 209 218 210
239 8 4 190 25 98 104 52 17 262 280 292 301 300 293 1 2 353 351 335 329 329 338 358 338 335 166 174 186 192 201 203 199 189 195 199 196 201 211 202 186 190 297 260
133 184 116 332 11 261 318 81 261 303 321 314 313 303 295 321 354 347 204 263 300 309 320 350 314 333 163 178 188 194 195 206 205 191 190 187 193 203 199 181 179 154 238 262
79 93 217 251 304 313 167 200 319 280 296 296 330 4 277 313 323 313 300 206 230 268 292 278 274 335 42 115 188 199 202 199 194 205 208 187 199 176 177 172 180 166 183 211
5 306 219 298 312 304 125 234 317 297 296 297 298 224 274 301 300 295 298 308 239 228 255 251 275 264 168 231 287 300 214 186 189 184 194 196 172 162 165 161 148 160 166 174
25 324 295 360 360 354 215 269 258 267 254 262 266 277 273 280 292 301 306 309 304 293 290 314 243 230 278 278 246 172 271 258 219 211 170 172 159 150 156 147 159 159 154 148
169 227 240 268 215 224 205 259 286 278 281 267 283 270 270 278 282 289 291 288 298 282 283 235 208 250 255 243 250 253 237 225 197 217 193 141 149 146 148 158 159 162 173 169
19 280 242 274 268 227 253 278 291 278 278 277 279 275 269 272 284 289 282 276 282 298 290 284 189 199 226 255 241 230 205 225 191 172 177 118 132 141 147 153 144 151 167 181
260 291 307 304 316 293 295 296 287 284 278 277 280 281 279 264 281 284 276 282 289 285 290 287 270 237 232 241 222 226 230 222 210 140 137 114 85 84 137 61 153 170 192 177
239 227 213 270 276 285 282 279 280 288 288 279 270 268 268 264 265 274 279 275 280 282 276 276 266 251 241 270 278 253 230 207 189 145 127 126 129 107 41 69 79 101 129 188
256 220 231 271 279 281 279 281 285 281 276 280 275 261 257 258 260 268 272 250 253 250 263 267 256 240 219 247 336 226 216 152 141 114 128 140 143 143 146 118 112 82 50 150
263 286 280 258 281 297 291 288 287 279 272 268 269 275 265 253 260 258 257 251 263 255 263 271 243 239 194 204 157 91 63 75 136 155 151 154 157 146 157 185 172 171 81 19
264 235 254 280 291 285 286 289 293 290 288 285 273 264 262 258 256 256 258 247 255 261 273 254 228 241 184 201 217 186 156 99 222 161 160 150 144 164 190 173 151 138 125 79
293 282 277 272 279 287 294 291 289 292 295 289 273 266 262 258 260 259 253 233 235 253 257 252 237 228 181 178 235 290 91 117 179 156 127 144 165 169 181 156 146 168 166 170
293 307 307 306 304 304 300 294 288 285 293 295 280 274 268 265 269 265 255 240 229 235 238 218 233 195 190 168 129 109 191 164 152 135 176 174 175 185 179 160 162 182 189 179
258 268 280 279 284 300 302 298 299 290 293 305 303 280 272 261 252 259 247 250 247 256 243 223 193 186 179 175 159 164 177 159 158 176 191 170 186 181 171 176 179 183 182 185
318 308 306 311 310 313 316 317 318 307 305 303 315 296 281 264 256 269 286 276 286 269 274 205 184 168 175 172 165 174 176 174 182 181 181 171 168 168 170 182 179 188 184 179
329 332 330 327 329 334 330 338 329 329 342 341 327 336 327 320 300 283 293 282 264 254 305 206 174 184 184 180 166 171 175 179 191 181 167 168 172 175 181 180 183 185 187 200
328 335 340 339 330 340 347 337 338 347 347 345 353 354 348 350 339 318 316 317 333 325 284 207 187 184 170 165 167 157 146 170 170 168 175 173 168 170 192 193 179 188 190 188
327 335 327 329 328 341 343 342 352 355 358 356 357 359 1 4 12 6 41 18 335 340 41 100 143 143 149 167 147 134 141 169 187 178 184 195 193 186 189 184 196 199 206 199
320 320 322 338 328 329 328 355 356 356 360 356 358 2 3 358 359 6 0 354 350 358 32 22 108 122 137 149 127 177 201 201 205 198 198 201 201 210 208 198 204 212 204 206
321 322 315 327 339 10 4 342 345 356 1 2 1 3 360 4 5 3 338 356 27 28 35 22 31 68 84 109 168 179 176 174 169 172 179 175 202 217 209 218 210 219 235 219
334 316 286 325 27 13 11 343 350 1 356 8 12 4 2 1 4 360 18 33 26 24 15 358 18 61 65 81 92 103 103 126 169 164 175 157 153 220 263 237 233 221 219 220
309 296 278 254 249 288 23 24 3 346 359 357 351 358 2 7 9 10 17 20 29 29 29 14 10 20 58 79 78 81 81 66 52 64 92 83 82 61 13 334 273 216 345 23
289 254 244 52 227 255 323 337 13 346 348 344 322 333 340 358 9 12 6 15 19 20 23 24 25 25 33 61 73 70 75 59 64 76 70 70 80 81 66 45 40 57 59 44